[[{"header":{"parameterUnit":"m.s-1","parameterCategory":1,"la1":30.2991,"la2":30.254,"lo1":-89.0895,"lo2":-89.0444,"dy":0.0017,"dx":0.0017,"nx":28,"ny":28,"refTime":"2024-06-29T21:00:00:Z","depth":0,"parameterNumber":2,"parameterNumberName":"U-component_of_WINDS"},"data":[0,0,0,0,0,0,0,0,0,0,0,0,0,0,0,0,0,0,0,0,0,0,0,0,0,0,0,0,0,0,0,0,0,0,0,0,0,0,0,0,0,0,0,0,0,0,0,0,0,0,0,0,0,0,0,0,0,0,3.0205,3.0205,0,3.0252,3.0252,3.0253,3.027,3.027,3.0269,3.0269,3.0319,3.0321,3.0322,0,0,0,0,0,0,0,0,0,0,0,0,0,3.0132,3.0134,3.0205,3.0205,3.0206,3.0252,3.0252,3.0253,3.027,3.027,3.0269,3.0269,3.0319,3.0321,3.0322,0,0,0,0,0,0,0,0,0,0,0,0,0,3.017,3.0134,3.0205,3.022,3.0221,3.0252,3.0252,3.0253,3.027,3.027,3.0269,3.0269,3.0318,3.032,3.0323,3.0342,0,0,3.0329,3.033,0,0,0,0,0,0,0,0,3.0168,3.0173,3.0217,3.0219,3.0221,3.0255,3.0245,3.0283,3.027,3.0252,3.0269,3.0269,3.0298,3.0302,3.0311,3.0344,3.0346,3.033,3.0331,3.0332,3.0333,0,0,0,0,0,0,0,3.0165,3.0171,3.0223,3.0217,3.022,3.0225,3.023,3.0252,3.0276,3.0253,3.0254,3.026,3.0299,3.0309,3.0313,3.0347,3.033,3.0332,3.0333,3.0334,3.04,3.04,0,0,0,0,0,0,3.016,3.0168,3.0222,3.0225,3.0193,3.0227,3.0232,3.0244,3.0276,3.028,3.026,3.026,3.0306,3.031,3.0315,3.034,3.0332,3.0334,3.0335,3.0399,3.04,3.04,0,0,0,0,0,0,3.0158,3.0164,3.022,3.0197,3.0204,3.0228,3.0241,3.0245,3.0255,3.0281,3.0285,3.0266,3.0306,3.0311,3.0335,3.0342,3.0335,3.0337,3.0399,3.0399,3.04,3.039,0,0,0,0,0,0,3.0156,3.0164,3.017,3.0197,3.0206,3.0238,3.0242,3.0246,3.0259,3.026,3.0287,3.0292,3.0306,3.0332,3.0337,3.0345,3.0339,3.0398,3.0399,3.04,3.0389,3.039,3.039,0,0,0,0,0,3.0153,3.0165,3.017,3.0177,3.0214,3.0239,3.0244,3.0259,3.0259,3.0267,3.0283,3.0291,3.034,3.0334,3.034,3.0349,3.0398,3.0399,3.04,3.0389,3.039,3.039,0,0,0,0,0,0,3.0139,3.0169,3.0175,3.0196,3.0215,3.0242,3.0251,3.0259,3.0279,3.0279,3.0298,3.0304,3.0327,3.034,3.0332,3.037,3.037,3.0372,3.036,3.036,3.0361,3.0357,3.0341,0,0,0,0,0,3.0138,3.0154,3.0181,3.0197,3.0206,3.0227,3.0238,3.0249,3.0269,3.0277,3.0296,3.0316,3.0336,3.0349,3.0369,3.0392,3.0399,3.0401,3.0401,3.0402,3.0403,3.0418,3.0419,3.0403,3.0403,3.0403,0,0,3.0136,3.0155,3.0164,3.0194,3.021,3.0228,3.0233,3.0252,3.0265,3.028,3.0304,3.0318,3.0342,3.0366,3.0377,3.0378,3.0409,3.0403,3.0403,3.0404,3.0419,3.042,3.0422,3.0404,3.0404,3.0403,0,0,3.0142,3.0158,3.0173,3.019,3.0213,3.0228,3.0232,3.0258,3.0268,3.0292,3.0304,3.0322,3.0356,3.0373,3.0386,3.0401,3.0409,3.0408,3.0409,3.0423,3.0424,3.0425,3.0431,3.0433,3.0409,3.0409,3.0409,0,3.0137,3.0164,3.0181,3.0199,3.0212,3.0227,3.0243,3.0258,3.0288,3.0297,3.0298,3.0342,3.0359,3.0388,3.0392,3.0402,3.0408,3.0404,3.0422,3.0424,3.0425,3.0431,3.0433,3.0409,3.0409,3.0409,3.0409,0,3.0157,3.0176,3.0186,3.0213,3.0228,3.0246,3.0266,3.0279,3.0289,3.0304,3.0329,3.0351,3.0376,3.0384,3.0394,3.0415,3.0414,3.0418,3.0419,3.0426,3.0432,3.0434,3.0408,3.0408,3.0408,3.0408,0,0,3.0153,3.0192,3.0195,3.0209,3.0237,3.0252,3.0272,3.0296,3.0307,3.0328,3.0345,3.0375,3.0379,3.0394,3.0407,3.0419,3.0431,3.0422,3.0423,3.0423,3.0456,3.0453,3.0455,3.0437,3.0437,3.0438,3.0454,0,3.0163,3.0197,3.0213,3.024,3.0258,3.0273,3.029,3.031,3.0325,3.0344,3.0361,3.0382,3.0386,3.0395,3.0408,3.0427,3.0438,3.0426,3.0454,3.0454,3.0446,3.0458,3.0454,3.0468,3.0457,3.0457,3.0457,0,3.0179,3.0199,3.0228,3.0256,3.0264,3.0278,3.0303,3.032,3.0344,3.0355,3.0372,3.0385,3.0407,3.0407,3.0438,3.0429,3.0442,3.0454,3.0455,3.0457,3.0456,3.0461,3.0473,3.0475,3.0461,3.0461,3.0461,0,3.0174,3.0209,3.023,3.0242,3.0275,3.0285,3.0299,3.0323,3.0337,3.0359,3.0369,3.0394,3.0407,3.0427,3.0446,3.0444,3.0476,3.0477,3.0486,3.0486,3.0491,3.049,3.0505,3.05,3.05,3.05,3.05,0,3.0183,3.02,3.0229,3.0242,3.0262,3.0282,3.0302,3.0317,3.0339,3.0356,3.0372,3.0388,3.0413,3.0433,3.0449,3.0473,3.0479,3.0489,3.0493,3.0487,3.0486,3.0495,3.0495,3.0501,3.0501,3.0501,3.05,0,3.018,3.02,3.0225,3.0255,3.0263,3.0276,3.0302,3.0316,3.0333,3.0355,3.0362,3.0388,3.0413,3.0434,3.0467,3.0478,3.0503,3.0507,3.0494,3.0496,3.0504,3.0503,3.0525,3.0529,3.0521,3.0521,3.0521,0,3.0184,3.0197,3.0229,3.0242,3.0256,3.0276,3.0291,3.0312,3.0327,3.0357,3.0368,3.0393,3.0415,3.0454,3.0477,3.0502,3.0508,3.0514,3.0512,3.0506,3.0508,3.0507,3.0509,3.0514,3.0514,3.0514,3.0514,0,3.0189,3.0199,3.0219,3.0244,3.0261,3.0281,3.0302,3.0312,3.0338,3.0354,3.0379,3.0396,3.043,3.0456,3.0484,3.05,3.0512,3.0514,3.0518,3.0512,3.0504,3.0508,3.0494,3.0513,3.0513,3.0513,3.0513,3.0513,3.019,3.0203,3.0228,3.0251,3.0269,3.0288,3.0303,3.0322,3.0343,3.0372,3.0384,3.041,3.0436,3.0475,3.0492,3.0513,3.0515,3.052,3.0521,3.0522,3.0521,3.0501,3.0518,3.0519,3.0519,3.0519,3.0519,0,3.0197,3.0214,3.0234,3.0263,3.0282,3.0291,3.0315,3.033,3.0352,3.0375,3.0396,3.0426,3.0452,3.0477,3.0504,3.0517,3.0523,3.0523,3.0522,3.0526,3.0518,3.0512,3.0518,3.0518,3.0518,3.0518,3.0518,3.0518,3.0202,3.0225,3.0238,3.0271,3.0288,3.0313,3.0326,3.0345,3.0363,3.0396,3.0417,3.0433,3.0458,3.0487,3.0512,3.0519,3.0528,3.0527,3.0535,3.0527,3.0526,3.0526,3.0521,3.0529,3.0529,3.0542,3.0542,3.0542]},{"header":{"parameterUnit":"m.s-1","parameterCategory":1,"la1":30.2991,"la2":30.254,"lo1":-89.0895,"lo2":-89.0444,"dy":0.0017,"dx":0.0017,"nx":28,"ny":28,"refTime":"2024-06-29T21:00:00:Z","depth":0,"parameterNumber":3,"parameterNumberName":"V-component_of_WINDS"},"data":[0,0,0,0,0,0,0,0,0,0,0,0,0,0,0,0,0,0,0,0,0,0,0,0,0,0,0,0,0,0,0,0,0,0,0,0,0,0,0,0,0,0,0,0,0,0,0,0,0,0,0,0,0,0,0,0,0,0,-0.0364,-0.0364,0,-0.0403,-0.0404,-0.0404,-0.0431,-0.0431,-0.0432,-0.0432,-0.0473,-0.0474,-0.0475,0,0,0,0,0,0,0,0,0,0,0,0,0,-0.0314,-0.0315,-0.0364,-0.0365,-0.0365,-0.0403,-0.0404,-0.0404,-0.0431,-0.0431,-0.0432,-0.0432,-0.0473,-0.0474,-0.0475,0,0,0,0,0,0,0,0,0,0,0,0,0,-0.0343,-0.0315,-0.0364,-0.0383,-0.0385,-0.0403,-0.0404,-0.0405,-0.0431,-0.0431,-0.0432,-0.0432,-0.0472,-0.0474,-0.0475,-0.0478,0,0,-0.0479,-0.048,0,0,0,0,0,0,0,0,-0.0341,-0.0344,-0.038,-0.0382,-0.0384,-0.0413,-0.0401,-0.0429,-0.0431,-0.0414,-0.0432,-0.0432,-0.0453,-0.0456,-0.0463,-0.048,-0.0481,-0.0479,-0.048,-0.0481,-0.0481,0,0,0,0,0,0,0,-0.0339,-0.0343,-0.038,-0.038,-0.0383,-0.039,-0.0395,-0.0407,-0.0431,-0.0415,-0.0417,-0.0421,-0.0454,-0.0461,-0.0464,-0.0482,-0.0479,-0.0481,-0.0481,-0.0482,-0.0505,-0.0505,0,0,0,0,0,0,-0.0334,-0.0341,-0.0378,-0.0381,-0.0363,-0.0391,-0.0396,-0.0403,-0.0431,-0.0436,-0.0421,-0.0423,-0.0459,-0.0462,-0.0465,-0.0471,-0.0481,-0.0482,-0.0483,-0.0505,-0.0505,-0.0505,0,0,0,0,0,0,-0.0333,-0.0337,-0.0377,-0.0362,-0.0367,-0.0391,-0.04,-0.0404,-0.0411,-0.0436,-0.044,-0.0424,-0.0459,-0.0463,-0.0475,-0.0473,-0.0483,-0.0484,-0.0505,-0.0505,-0.0505,-0.0483,0,0,0,0,0,0,-0.0331,-0.0336,-0.0337,-0.0361,-0.0368,-0.0385,-0.0399,-0.0404,-0.0413,-0.0415,-0.0439,-0.0444,-0.046,-0.0473,-0.0476,-0.0475,-0.0485,-0.0506,-0.0505,-0.0505,-0.0484,-0.0482,-0.048,0,0,0,0,0,-0.0329,-0.0329,-0.0337,-0.0341,-0.0369,-0.0385,-0.0389,-0.0407,-0.0413,-0.0414,-0.043,-0.0443,-0.0473,-0.0473,-0.0478,-0.0477,-0.0506,-0.0505,-0.0505,-0.0484,-0.0482,-0.048,0,0,0,0,0,0,-0.0304,-0.0332,-0.0341,-0.0349,-0.0364,-0.0389,-0.0391,-0.0403,-0.0417,-0.0419,-0.0441,-0.0446,-0.0456,-0.0467,-0.0468,-0.0482,-0.0491,-0.0491,-0.0474,-0.0472,-0.047,-0.0467,-0.0486,0,0,0,0,0,-0.0299,-0.0309,-0.0334,-0.0338,-0.0345,-0.0367,-0.0374,-0.0387,-0.0404,-0.0411,-0.0427,-0.0443,-0.0457,-0.0465,-0.0478,-0.0485,-0.0492,-0.0487,-0.0485,-0.0484,-0.0484,-0.049,-0.0489,-0.0503,-0.0503,-0.0503,0,0,-0.029,-0.0306,-0.0311,-0.0333,-0.0347,-0.0357,-0.0372,-0.0382,-0.039,-0.0412,-0.0424,-0.0437,-0.0457,-0.0466,-0.0471,-0.0477,-0.0481,-0.0483,-0.0482,-0.0483,-0.0489,-0.0488,-0.0487,-0.0503,-0.0503,-0.0503,0,0,-0.0278,-0.0291,-0.0297,-0.031,-0.033,-0.0344,-0.0346,-0.0369,-0.0379,-0.0391,-0.0408,-0.0418,-0.044,-0.0454,-0.0463,-0.0458,-0.047,-0.0462,-0.0452,-0.0458,-0.0456,-0.0456,-0.0455,-0.0454,-0.0462,-0.0462,-0.0462,0,-0.0263,-0.0279,-0.0298,-0.0308,-0.0317,-0.0338,-0.0344,-0.0356,-0.0379,-0.0386,-0.0391,-0.042,-0.0434,-0.0448,-0.0447,-0.0454,-0.0457,-0.0459,-0.0455,-0.0454,-0.0454,-0.0453,-0.0453,-0.046,-0.0461,-0.0461,-0.0461,0,-0.0261,-0.0272,-0.0274,-0.0297,-0.0307,-0.0314,-0.0335,-0.0343,-0.0355,-0.037,-0.0383,-0.0401,-0.0419,-0.0423,-0.0435,-0.0439,-0.0442,-0.0451,-0.046,-0.0451,-0.0451,-0.0451,-0.0459,-0.0459,-0.046,-0.046,0,0,-0.0234,-0.0267,-0.0268,-0.0279,-0.0303,-0.0312,-0.0321,-0.0339,-0.0345,-0.0361,-0.037,-0.0389,-0.0397,-0.0409,-0.0422,-0.0427,-0.0423,-0.0436,-0.0437,-0.0433,-0.043,-0.0423,-0.0423,-0.0431,-0.0431,-0.0431,-0.0429,0,-0.0227,-0.0244,-0.0262,-0.0273,-0.0284,-0.0304,-0.0312,-0.0328,-0.0342,-0.0354,-0.0369,-0.0383,-0.0393,-0.04,-0.0405,-0.0422,-0.0423,-0.0422,-0.0441,-0.0441,-0.0436,-0.0422,-0.0415,-0.0412,-0.0429,-0.0428,-0.0428,0,-0.022,-0.0235,-0.0247,-0.0271,-0.0276,-0.0283,-0.0301,-0.0312,-0.0331,-0.0341,-0.0354,-0.0368,-0.038,-0.0388,-0.0405,-0.0405,-0.0414,-0.0423,-0.0423,-0.0426,-0.0434,-0.0426,-0.0411,-0.0411,-0.0428,-0.0428,-0.0428,0,-0.02,-0.0223,-0.0234,-0.0242,-0.027,-0.0275,-0.0287,-0.0306,-0.0316,-0.0332,-0.0339,-0.0356,-0.0365,-0.0379,-0.0398,-0.0402,-0.0414,-0.0423,-0.0423,-0.0423,-0.0425,-0.0424,-0.0412,-0.0429,-0.0429,-0.0429,-0.0429,0,-0.019,-0.0197,-0.0226,-0.0232,-0.0241,-0.0262,-0.027,-0.0284,-0.0301,-0.0312,-0.033,-0.0339,-0.0364,-0.0376,-0.0392,-0.0404,-0.0408,-0.0417,-0.0421,-0.0416,-0.0415,-0.0422,-0.0423,-0.0429,-0.0429,-0.0429,-0.0429,0,-0.0169,-0.0189,-0.0202,-0.0227,-0.0234,-0.024,-0.0262,-0.027,-0.0285,-0.0298,-0.0302,-0.0326,-0.0342,-0.0362,-0.0385,-0.0395,-0.0406,-0.0412,-0.0399,-0.0402,-0.0401,-0.0401,-0.0394,-0.0394,-0.041,-0.041,-0.041,0,-0.0162,-0.0168,-0.0194,-0.0202,-0.0214,-0.0227,-0.0237,-0.0258,-0.0268,-0.0291,-0.0296,-0.0313,-0.0328,-0.0353,-0.0373,-0.039,-0.0397,-0.0393,-0.04,-0.0395,-0.0398,-0.0398,-0.0399,-0.0392,-0.0391,-0.0391,-0.0391,0,-0.0147,-0.0157,-0.017,-0.0188,-0.0199,-0.0214,-0.023,-0.0236,-0.026,-0.0271,-0.0287,-0.0299,-0.0322,-0.0339,-0.0359,-0.0373,-0.0386,-0.0389,-0.039,-0.0385,-0.0378,-0.0382,-0.0396,-0.0389,-0.0389,-0.0389,-0.0389,-0.0389,-0.0134,-0.014,-0.016,-0.0175,-0.0189,-0.0204,-0.0212,-0.0229,-0.0243,-0.0263,-0.0275,-0.0291,-0.0311,-0.034,-0.0353,-0.0366,-0.0371,-0.0373,-0.0373,-0.0373,-0.0372,-0.0375,-0.037,-0.037,-0.037,-0.037,-0.037,0,-0.0121,-0.0134,-0.0148,-0.0169,-0.0182,-0.0193,-0.0211,-0.0221,-0.0235,-0.0252,-0.0267,-0.0286,-0.0303,-0.0325,-0.0344,-0.0351,-0.0357,-0.0355,-0.0355,-0.0358,-0.0366,-0.0364,-0.0349,-0.0349,-0.0349,-0.0349,-0.0349,-0.0349,-0.0115,-0.0127,-0.0139,-0.0159,-0.0173,-0.0189,-0.0199,-0.0212,-0.0226,-0.0247,-0.0262,-0.0275,-0.0295,-0.0315,-0.0332,-0.0338,-0.0344,-0.034,-0.0348,-0.0355,-0.0357,-0.0359,-0.0357,-0.0341,-0.0341,-0.0339,-0.0339,-0.0339]}]]